Weather History for Thedford, NE

Change the Weather History Date:

Thursday, December 19, 2013

  Actual Average (KLBF) Record (KLBF)
Temperature  
Mean Temperature 22 °F 24 °F  
Max Temperature 36 °F 38 °F 62 °F (1979)
Min Temperature 9 °F 11 °F -22 °F (1924)
Degree Days  
Heating Degree Days 42 41  
Month to date heating degree days 740  
Since 1 July heating degree days 2291  
Cooling Degree Days 0 0  
Month to date cooling degree days 0  
Year to date cooling degree days 768  
Moisture  
Dew Point 17 °F    
Average Humidity 84    
Maximum Humidity 92    
Minimum Humidity 65    
Precipitation  
Precipitation 0.00 in 0.02 in 0.38 in (1962)
Month to date precipitation 0.26  
Year to date precipitation 20.08  
Snow  
Snow 0.00 in 0.10 in 2.90 in (2012)
Month to date snowfall 2.7  
Since 1 July snowfall 8.9  
Snow Depth -    
Sea Level Pressure  
Sea Level Pressure 29.83 in    
Wind  
Wind Speed 9 mph (NNE)    
Max Wind Speed 21 mph    
Max Gust Speed 28 mph    
Visibility 6 miles    
Events Fog , Snow    
T = Trace of Precipitation, MM = Missing Value Source: NWS Daily Summary

Daily Weather History Graph

Daily Weather History Graph

Search for Another Location

Airport:

Trip Planner

Search our weather history database for the weather conditions in past years. The results will help you decide how hot, cold, wet, or windy it might be!

Date:

Astronomy

Dec. 19, 2013 Rise Set
Actual Time 8:05 AM CST 5:13 PM CST
Civil Twilight 7:34 AM CST 5:45 PM CST
Nautical Twilight 6:58 AM CST 6:20 PM CST
Astronomical Twilight 6:24 AM CST 6:54 PM CST
Moon 7:42 PM CST (12/19) 9:23 AM CST (12/19)
Length of Visible Light 10h 10m
Length of Day
9h 07m
Waning Gibbous, 95% of the Moon is Illuminated
Dec 19
Waning Gibbous
Dec 25
Last Quarter
Jan 1
New
Jan 7
First Quarter
Jan 15
Full

Hourly Weather History & Observations

Time (CST) Temp. Windchill Dew Point Humidity Pressure Visibility Wind Dir Wind Speed Gust Speed Precip Events Conditions
12:15 AM 35.2 °F 32.4 °F 25.7 °F 68% 29.80 in 10.0 mi NNE 3.5 mph - N/A   Clear
12:35 AM 36.1 °F 32.3 °F 25.3 °F 65% 29.79 in 10.0 mi NNE 4.6 mph - N/A   Clear
12:55 AM 34.7 °F 29.6 °F 25.3 °F 69% 29.79 in 10.0 mi NNE 5.8 mph - N/A   Clear
1:15 AM 34.0 °F 28.8 °F 25.3 °F 71% 29.79 in 10.0 mi NE 5.8 mph - N/A   Clear
1:35 AM 33.8 °F 28.6 °F 25.3 °F 71% 29.78 in 10.0 mi NNE 5.8 mph - N/A   Clear
1:55 AM 33.1 °F 26.1 °F 25.7 °F 74% 29.78 in 10.0 mi NNE 8.1 mph - N/A   Clear
2:15 AM 32.9 °F 25.9 °F 26.2 °F 76% 29.78 in 10.0 mi NNE 8.1 mph - N/A   Clear
2:35 AM 32.7 °F 26.4 °F 26.4 °F 78% 29.78 in 10.0 mi NNE 6.9 mph - N/A   Clear
2:55 AM 32.0 °F 28.7 °F 26.4 °F 80% 29.78 in 10.0 mi NE 3.5 mph - N/A   Clear
3:15 AM 31.6 °F 28.3 °F 26.2 °F 80% 29.79 in 10.0 mi NE 3.5 mph - N/A   Clear
3:35 AM 31.1 °F 27.7 °F 26.1 °F 82% 29.80 in 10.0 mi North 3.5 mph - N/A   Clear
3:55 AM 30.6 °F 27.1 °F 25.7 °F 82% 29.80 in 10.0 mi North 3.5 mph - N/A   Clear
4:15 AM 30.4 °F 24.5 °F 26.2 °F 85% 29.79 in 10.0 mi NE 5.8 mph - N/A   Clear
4:35 AM 30.2 °F 25.4 °F 26.6 °F 86% 29.79 in 10.0 mi NE 4.6 mph - N/A   Clear
4:55 AM 30.7 °F 26.0 °F 27.1 °F 86% 29.80 in 10.0 mi NNE 4.6 mph - N/A   Mostly Cloudy
5:15 AM 30.9 °F 23.5 °F 27.3 °F 86% 29.80 in 10.0 mi NNE 8.1 mph - N/A   Overcast
5:35 AM 30.6 °F 20.7 °F 27.3 °F 88% 29.80 in 10.0 mi NE 12.7 mph - N/A   Overcast
5:55 AM 30.2 °F 20.8 °F 27.3 °F 89% 29.80 in 10.0 mi NE 11.5 mph 18.4 mph N/A   Overcast
6:15 AM 30.0 °F 21.7 °F 27.3 °F 90% 29.80 in 7.0 mi ENE 9.2 mph - N/A   Overcast
6:35 AM 29.3 °F 19.6 °F 27.0 °F 91% 29.79 in 4.0 mi NE 11.5 mph - N/A   Overcast
6:55 AM 28.9 °F 18.6 °F 26.8 °F 92% 29.80 in 1.8 mi NE 12.7 mph 18.4 mph N/A   Overcast
7:15 AM 27.9 °F 19.8 °F 25.9 °F 92% 29.80 in 1.8 mi NE 8.1 mph 17.3 mph N/A   Overcast
7:35 AM 27.5 °F 18.0 °F 25.5 °F 92% 29.81 in 2.5 mi ENE 10.4 mph - N/A   Overcast
7:55 AM 26.6 °F 18.2 °F 24.4 °F 92% 29.80 in 5.0 mi ENE 8.1 mph - N/A   Overcast
8:15 AM 26.6 °F 16.2 °F 24.4 °F 92% 29.80 in 3.0 mi ENE 11.5 mph - N/A   Overcast
8:35 AM 26.6 °F 15.2 °F 24.6 °F 92% 29.79 in 2.0 mi NE 13.8 mph - N/A   Overcast
8:55 AM 26.6 °F 16.2 °F 24.6 °F 92% 29.80 in 0.8 mi ENE 11.5 mph - N/A   Overcast
9:15 AM 26.2 °F 15.8 °F 24.3 °F 92% 29.80 in 0.5 mi ENE 11.5 mph - N/A Fog Light Freezing Fog
9:35 AM 26.4 °F 17.3 °F 24.4 °F 92% 29.80 in 0.5 mi NE 9.2 mph - N/A Fog Light Freezing Fog
9:55 AM 26.2 °F 15.8 °F 24.3 °F 92% 29.80 in 0.8 mi NE 11.5 mph 16.1 mph N/A   Overcast
10:15 AM 26.4 °F 18.0 °F 24.4 °F 92% 29.80 in 2.0 mi ENE 8.1 mph - N/A   Overcast
10:35 AM 26.2 °F 16.4 °F 23.9 °F 91% 29.81 in 0.8 mi NE 10.4 mph - N/A   Overcast
10:55 AM 25.7 °F 16.4 °F 23.5 °F 92% 29.81 in 1.0 mi ENE 9.2 mph - N/A   Overcast
11:15 AM 24.8 °F 14.0 °F 22.6 °F 91% 29.80 in 1.8 mi ENE 11.5 mph - N/A   Overcast
11:35 AM 24.8 °F 13.4 °F 22.8 °F 92% 29.79 in 1.0 mi NE 12.7 mph - N/A   Overcast
11:55 AM 23.4 °F 11.6 °F 21.0 °F 91% 29.80 in 0.2 mi NE 12.7 mph - N/A Fog Light Freezing Fog
12:15 PM 22.6 °F 12.6 °F 20.1 °F 90% 29.80 in 0.8 mi North 9.2 mph - N/A   Overcast
12:35 PM 22.1 °F 12.0 °F 19.6 °F 90% 29.79 in 2.5 mi NNE 9.2 mph - N/A   Overcast
12:55 PM 21.2 °F 8.9 °F 18.7 °F 90% 29.78 in 1.5 mi NNE 12.7 mph - N/A   Overcast
1:15 PM 20.3 °F 9.8 °F 17.6 °F 89% 29.76 in 1.8 mi NE 9.2 mph - N/A   Overcast
1:35 PM 19.9 °F 8.6 °F 17.2 °F 89% 29.77 in 4.0 mi NNE 10.4 mph - N/A   Overcast
1:55 PM 19.4 °F 8.6 °F 16.7 °F 89% 29.77 in 4.0 mi NNE 9.2 mph - N/A   Overcast
2:15 PM 19.2 °F 8.4 °F 16.5 °F 89% 29.75 in 4.0 mi NNE 9.2 mph - N/A   Overcast
2:35 PM 19.2 °F 7.7 °F 16.5 °F 89% 29.78 in 4.0 mi North 10.4 mph - N/A   Overcast
2:55 PM 18.7 °F 7.0 °F 15.8 °F 89% 29.79 in 5.0 mi North 10.4 mph 17.3 mph N/A   Overcast
3:15 PM 18.3 °F 4.6 °F 15.4 °F 89% 29.79 in 3.0 mi North 13.8 mph 18.4 mph N/A Snow Light Snow
3:35 PM 17.4 °F 5.4 °F 14.2 °F 87% 29.80 in 3.0 mi North 10.4 mph 19.6 mph N/A Snow Light Snow
3:55 PM 16.5 °F 4.3 °F 13.1 °F 86% 29.81 in 4.0 mi North 10.4 mph 20.7 mph N/A Snow Light Snow
4:15 PM 15.4 °F 1.0 °F 12.0 °F 86% 29.83 in 2.5 mi North 13.8 mph 19.6 mph N/A Snow Light Snow
4:35 PM 14.0 °F 0.5 °F 10.4 °F 86% 29.84 in 3.0 mi North 11.5 mph 19.6 mph N/A Snow Light Snow
4:55 PM 13.1 °F -0.7 °F 9.5 °F 86% 29.85 in 1.8 mi North 11.5 mph 19.6 mph N/A Snow Light Snow
5:15 PM 12.0 °F -3.4 °F 8.2 °F 85% 29.87 in 7.0 mi North 13.8 mph 18.4 mph N/A Snow Light Snow
5:35 PM 11.3 °F -3.6 °F 7.5 °F 85% 29.86 in 7.0 mi North 12.7 mph 19.6 mph N/A Snow Light Snow
5:55 PM 10.8 °F -5.6 °F 6.8 °F 84% 29.86 in 10.0 mi North 15.0 mph 19.6 mph N/A   Overcast
6:15 PM 10.4 °F -6.0 °F 6.4 °F 84% 29.89 in 7.0 mi North 15.0 mph 19.6 mph N/A Snow Light Snow
6:35 PM 10.2 °F -5.7 °F 6.3 °F 84% 29.91 in 7.0 mi North 13.8 mph 19.6 mph N/A   Overcast
6:55 PM 10.4 °F -4.8 °F 6.4 °F 84% 29.91 in 10.0 mi North 12.7 mph 21.9 mph N/A   Overcast
7:15 PM 10.4 °F -7.7 °F 6.4 °F 84% 29.91 in 5.0 mi North 18.4 mph 26.5 mph N/A Snow Light Snow
7:35 PM 10.2 °F -5.0 °F 5.9 °F 83% 29.92 in 5.0 mi NNW 12.7 mph - N/A Snow Light Snow
7:55 PM 10.4 °F -6.0 °F 6.1 °F 83% 29.93 in 4.0 mi NNW 15.0 mph 19.6 mph N/A Snow Light Snow
8:15 PM 10.4 °F -4.8 °F 5.9 °F 82% 29.93 in 7.0 mi North 12.7 mph 25.3 mph N/A   Overcast
8:35 PM 10.2 °F -4.3 °F 5.0 °F 79% 29.94 in 7.0 mi NNW 11.5 mph 24.2 mph N/A Snow Light Snow
8:55 PM 10.4 °F -7.7 °F 5.0 °F 79% 29.94 in 5.0 mi NNW 18.4 mph 23.0 mph N/A Snow Light Snow
9:15 PM 10.2 °F -5.7 °F 4.8 °F 79% 29.94 in 7.0 mi NNW 13.8 mph 21.9 mph N/A   Overcast
9:35 PM 9.5 °F -7.2 °F 4.1 °F 79% 29.95 in 7.0 mi NNW 15.0 mph 21.9 mph N/A Snow Light Snow
9:55 PM 9.3 °F -8.6 °F 3.7 °F 78% 29.95 in 10.0 mi NNW 17.3 mph 27.6 mph N/A   Overcast
10:15 PM 9.5 °F -7.8 °F 3.9 °F 78% 29.96 in 10.0 mi NNW 16.1 mph 23.0 mph N/A   Overcast
10:35 PM 9.5 °F -7.2 °F 3.4 °F 76% 29.96 in 10.0 mi NNW 15.0 mph 23.0 mph N/A   Overcast
10:55 PM 9.5 °F -8.3 °F 3.4 °F 76% 29.96 in 10.0 mi NNW 17.3 mph 21.9 mph N/A   Overcast
11:15 PM 9.5 °F -6.6 °F 3.0 °F 75% 29.97 in 10.0 mi NNW 13.8 mph 24.2 mph N/A   Overcast
11:35 PM 9.5 °F -9.8 °F 2.5 °F 73% 29.96 in 10.0 mi NNW 20.7 mph 27.6 mph N/A   Overcast
11:55 PM 9.5 °F -5.9 °F 3.2 °F 76% 29.96 in 10.0 mi NNW 12.7 mph 19.6 mph N/A   Overcast